#timestamp,LO_Frequency,Hit,StdDev 
1619935215.0,286046999.7,N
1619935215.9,286046999.7,N
1619935235.8,286047000.2,N
1619935255.6,286047000.0,N
1619935275.4,286047001.8,N
1619935295.3,286047003.7,Y
1619935315.1,286047004.4,P
1619935335.8,286046999.9,N
1619935355.7,286046998.3,N
1619935375.5,286047001.1,N
1619935395.4,286046999.2,N
1619935415.2,286046995.4,N
1619935435.0,286046996.8,N
1619935435.9,286046996.8,N
1619935455.8,286046997.8,N
1619935475.6,286046999.0,N
1619935495.5,286047002.8,N
1619935515.3,286046998.6,N
1619935535.1,286046996.8,N
1619935555.9,286046996.7,N
1619935575.7,286046999.5,N
1619935595.5,286046995.7,N
1619935615.4,286046996.3,N
1619935635.2,286046996.1,N
1619935655.1,286046995.1,N
1619935656.0,286046995.1,N
1619935675.8,286046996.6,N
1619935695.6,286046999.6,N
1619935715.5,286046997.8,N
1619935735.3,286046997.8,N
1619935755.1,286046996.1,N
1619935775.9,286046995.8,N
1619935795.7,286046997.5,N
1619935815.6,286046999.3,N
1619935835.4,286046998.7,N
1619935855.2,286046998.8,N
1619935875.1,286046995.4,N
1619935876.0,286046995.4,N
1619935895.8,286046995.6,N
1619935915.6,286046996.1,N
1619935935.5,286046993.8,Y
1619935955.3,286046998.2,P
1619935975.2,286046999.7,N
1619935995.9,286047000.2,N
1619936015.7,286047000.7,N
1619936035.6,286046999.7,N
1619936055.4,286047006.0,Y
1619936075.2,286047007.6,P
1619936095.1,286047003.9,N
1619936096.0,286047003.9,N
1619936115.8,286047003.9,N
1619936135.7,286047001.8,N
1619936155.5,286047004.0,N
1619936175.3,286047003.1,N
1619936195.2,286047005.9,N
1619936215.0,286047007.3,Y
1619936215.9,286047007.3,P
1619936235.8,286047000.4,N
1619936255.6,286046998.7,N
1619936275.4,286046999.0,N
1619936295.3,286046996.6,N
1619936315.1,286046996.5,N
1619936335.8,286046996.7,N
1619936355.7,286046997.6,N
1619936375.5,286046997.6,N
1619936395.3,286046997.2,N
1619936415.2,286046997.5,N
1619936435.0,286046997.3,N
1619936435.9,286046997.3,N
1619936455.8,286046997.6,N
1619936475.6,286046997.0,N
1619936495.4,286046997.6,N
1619936515.3,286046995.4,N
1619936535.1,286046996.7,N
1619936555.8,286046999.2,N
1619936575.7,286046998.0,N
1619936595.5,286046998.0,N
1619936615.4,286046997.7,N
1619936635.2,286046999.5,N
1619936655.0,286047000.1,N
1619936655.9,286047000.1,N
1619936675.8,286047000.2,N
1619936695.6,286047000.3,N
1619936715.4,286046997.1,N
1619936735.3,286046995.7,N
1619936755.1,286046996.8,N
1619936775.9,286046997.0,N
1619936795.7,286046999.4,N
1619936815.5,286047000.5,N
1619936835.4,286047000.2,N
1619936855.2,286046998.1,N
1619936875.1,286047001.1,N
1619936876.0,286047001.1,N
1619936895.8,286047000.2,N
1619936915.6,286047000.9,N
1619936935.5,286046998.3,N
1619936955.3,286046996.7,N
1619936975.2,286046997.5,N
1619936995.9,286046997.6,N
1619937015.7,286046995.2,N
1619937035.6,286046996.5,N
1619937055.4,286046997.6,N
1619937075.3,286046997.6,N
1619937095.1,286046998.7,N
1619937096.0,286046998.7,N
1619937115.8,286047000.9,N
1619937135.7,286047000.8,N
1619937155.5,286047001.1,N
1619937175.3,286046996.6,N
1619937195.2,286046998.0,N
1619937215.0,286046997.9,N
1619937215.9,286046997.9,N
1619937235.8,286046995.2,N
1619937255.6,286046995.7,N
1619937275.4,286046997.4,N
1619937295.3,286046995.7,N
1619937315.1,286046996.3,N
1619937335.9,286046994.1,Y
1619937355.7,286046995.2,P
1619937375.5,286046997.4,N
1619937395.4,286046999.9,N
1619937415.2,286047000.2,N
1619937435.1,286046998.5,N
1619937436.0,286046998.5,N
1619937455.8,286046999.6,N
1619937475.6,286046997.7,N
1619937495.5,286046998.8,N
1619937515.3,286046998.4,N
1619937535.2,286046999.5,N
1619937555.9,286046999.0,N
1619937575.7,286046998.7,N
1619937595.6,286046999.6,N
1619937615.4,286046997.7,N
1619937635.2,286046998.0,N
1619937655.1,286046995.8,Y
1619937656.0,286046995.8,P
1619937675.8,286046995.7,P
1619937695.7,286046997.7,N
1619937715.5,286046997.6,N
1619937735.3,286046996.7,N
1619937755.2,286046997.7,N
1619937775.0,286046997.8,N
1619937775.9,286046997.8,N
1619937795.8,286047001.1,N
1619937815.6,286046998.4,N
1619937835.4,286047000.9,N
1619937855.3,286047000.0,N
1619937875.1,286047000.7,N
1619937895.8,286046998.2,N
1619937915.7,286046998.9,N
1619937935.5,286046997.8,N
1619937955.4,286046998.0,N
1619937975.2,286046999.2,N
1619937995.0,286046997.8,N
1619937995.9,286046997.8,N
1619938015.8,286046997.7,N
1619938035.6,286046999.5,N
1619938055.4,286046998.9,N
1619938075.3,286046998.7,N
1619938095.1,286046998.8,N
1619938115.9,286047000.5,N
1619938135.7,286047004.0,N
1619938155.5,286047004.0,N
1619938175.4,286047006.0,Y
1619938195.2,286047003.4,P
1619938215.1,286047001.4,N
1619938216.0,286047001.4,N
1619938235.8,286047000.1,N
1619938255.6,286047000.5,N
1619938275.5,286046998.8,N
1619938295.3,286046996.6,N
1619938315.1,286046999.1,N
1619938335.9,286046995.0,N
1619938355.7,286046995.7,N
1619938375.6,286046996.1,N
1619938395.4,286046993.7,N
1619938415.2,286046995.1,N
1619938435.1,286046995.7,N
1619938436.0,286046995.7,N
1619938455.8,286046995.7,N
1619938475.6,286046993.8,N
1619938495.5,286046997.4,N
1619938515.3,286046999.5,N
1619938535.2,286046998.7,N
1619938555.9,286046998.5,N
1619938575.7,286046995.0,N
1619938595.6,286046997.8,N
1619938615.4,286046995.1,N
1619938635.3,286046997.8,N
1619938655.1,286046994.9,N
1619938656.0,286046994.9,N
1619938675.8,286046997.7,N
1619938695.7,286046997.3,N
1619938715.5,286047000.7,N
1619938735.3,286047002.7,N
1619938755.2,286047002.6,N
1619938775.0,286047000.2,N
1619938775.9,286047000.2,N
1619938795.8,286047001.2,N
